Location: Newark
(36.2350°N, 59.6408°E)
Time: 09:49:35
(UTC+00:00)

LightSail 2 - Visible Passes

Search period start: 15 November 2019 00:00
Search period end: 25 November 2019 00:00
Orbit: 701 x 726 km, 24.0° (Epoch: 14 November)

Date Brightness Start Highest point End Pass type
(mag) Time Alt. Az. Time Alt. Az. Time Alt. Az.
15 Nov 7.2 01:35:40 10° SW 01:39:05 18° S 01:42:31 10° SSE visible
16 Nov 6.9 00:40:33 19° SSW 00:41:22 19° S 00:45:02 10° SE visible
16 Nov 7.6 23:46:16 14° SSE 23:46:16 14° SSE 23:47:24 10° SE visible
17 Nov 7.4 01:25:49 10° SW 01:28:28 14° SSW 01:31:07 10° SSE visible
18 Nov 7.2 00:30:57 16° S 00:30:57 16° S 00:33:55 10° SSE visible
20 Nov 7.6 00:21:20 11° S 00:21:20 11° S 00:22:08 10° S visible
